Time,TemperatureF,DewpointF,PressureIn,WindDirection,WindDirectionDegrees,WindSpeedMPH,WindSpeedGustMPH,Humidity,HourlyPrecipIn,Conditions,Clouds,dailyrainin,SoftwareType,DateUTC
2013-09-28 00:01:00,50.5,49.0,30.29,NNW,327,0.0,1.0,93,0.00,,,0.00,weatherlink.com 1.10,2013-09-28 04:01:00,
2013-09-28 00:18:00,50.4,49.0,30.29,WNW,303,0.0,2.0,95,0.00,,,0.00,weatherlink.com 1.10,2013-09-28 04:18:00,
2013-09-28 00:34:00,50.0,48.0,30.29,WNW,303,0.0,1.0,94,0.00,,,0.00,weatherlink.com 1.10,2013-09-28 04:34:00,
2013-09-28 00:50:00,50.3,49.0,30.29,WSW,244,1.0,1.0,94,0.00,,,0.00,weatherlink.com 1.10,2013-09-28 04:50:00,
2013-09-28 01:06:00,50.4,49.0,30.29,West,260,0.0,1.0,95,0.00,,,0.00,weatherlink.com 1.10,2013-09-28 05:06:00,
2013-09-28 01:23:00,50.4,49.0,30.29,SE,142,0.0,2.0,95,0.00,,,0.00,weatherlink.com 1.10,2013-09-28 05:23:00,
2013-09-28 01:40:00,50.3,49.0,30.30,SE,134,0.0,2.0,95,0.00,,,0.00,weatherlink.com 1.10,2013-09-28 05:40:00,
2013-09-28 01:56:00,50.3,49.0,30.30,WSW,253,1.0,1.0,95,0.00,,,0.00,weatherlink.com 1.10,2013-09-28 05:56:00,
2013-09-28 02:13:00,50.2,49.0,30.30,WSW,248,0.0,2.0,95,0.00,,,0.00,weatherlink.com 1.10,2013-09-28 06:13:00,
2013-09-28 02:29:00,49.5,48.0,30.30,ESE,123,1.0,2.0,96,0.00,,,0.00,weatherlink.com 1.10,2013-09-28 06:29:00,
2013-09-28 02:45:00,49.4,48.0,30.30,West,271,0.0,1.0,96,0.00,,,0.00,weatherlink.com 1.10,2013-09-28 06:45:00,
2013-09-28 03:01:00,49.4,49.0,30.30,SW,235,0.0,1.0,97,0.00,,,0.00,weatherlink.com 1.10,2013-09-28 07:01:00,
2013-09-28 03:17:00,49.4,49.0,30.30,SW,215,0.0,2.0,97,0.00,,,0.00,weatherlink.com 1.10,2013-09-28 07:17:00,
2013-09-28 03:34:00,49.1,48.0,30.30,SSW,204,0.0,2.0,96,0.00,,,0.00,weatherlink.com 1.10,2013-09-28 07:34:00,
2013-09-28 03:50:00,49.1,48.0,30.30,South,171,0.0,2.0,96,0.00,,,0.00,weatherlink.com 1.10,2013-09-28 07:50:00,
2013-09-28 04:06:00,49.2,48.0,30.30,SE,126,0.0,2.0,97,0.00,,,0.00,weatherlink.com 1.10,2013-09-28 08:06:00,
2013-09-28 04:23:00,48.9,48.0,30.31,SW,231,0.0,2.0,96,0.00,,,0.00,weatherlink.com 1.10,2013-09-28 08:23:00,
2013-09-28 04:39:00,48.8,48.0,30.31,SW,216,0.0,2.0,97,0.00,,,0.00,weatherlink.com 1.10,2013-09-28 08:39:00,
2013-09-28 04:55:00,48.5,48.0,30.31,WSW,237,0.0,1.0,97,0.00,,,0.00,weatherlink.com 1.10,2013-09-28 08:55:00,
2013-09-28 05:11:00,48.2,47.0,30.31,SW,221,0.0,2.0,97,0.00,,,0.00,weatherlink.com 1.10,2013-09-28 09:11:00,
2013-09-28 05:27:00,48.6,48.0,30.31,SW,227,0.0,1.0,97,0.00,,,0.00,weatherlink.com 1.10,2013-09-28 09:27:00,
2013-09-28 05:44:00,48.1,47.0,30.31,SW,227,0.0,1.0,97,0.00,,,0.00,weatherlink.com 1.10,2013-09-28 09:44:00,
2013-09-28 06:00:00,47.3,46.0,30.32,SW,226,1.0,1.0,96,0.00,,,0.00,weatherlink.com 1.10,2013-09-28 10:00:00,
2013-09-28 06:33:00,49.4,49.0,30.33,WSW,242,0.0,3.0,99,0.00,,,0.00,weatherlink.com 1.10,2013-09-28 10:33:00,
2013-09-28 06:49:00,48.7,47.0,30.34,WSW,242,0.0,1.0,95,0.00,,,0.00,weatherlink.com 1.10,2013-09-28 10:49:00,
2013-09-28 07:05:00,47.7,47.0,30.34,WSW,242,0.0,1.0,98,0.00,,,0.00,weatherlink.com 1.10,2013-09-28 11:05:00,
2013-09-28 07:21:00,48.6,48.0,30.35,ESE,122,0.0,2.0,99,0.00,,,0.00,weatherlink.com 1.10,2013-09-28 11:21:00,
2013-09-28 07:37:00,48.8,48.0,30.35,West,259,0.0,1.0,98,0.00,,,0.00,weatherlink.com 1.10,2013-09-28 11:37:00,
2013-09-28 07:54:00,49.1,49.0,30.35,West,259,0.0,0.0,99,0.00,,,0.00,weatherlink.com 1.10,2013-09-28 11:54:00,
2013-09-28 08:10:00,49.5,49.0,30.36,West,259,0.0,0.0,99,0.00,,,0.00,weatherlink.com 1.10,2013-09-28 12:10:00,
2013-09-28 08:26:00,50.0,50.0,30.36,West,260,0.0,1.0,99,0.00,,,0.00,weatherlink.com 1.10,2013-09-28 12:26:00,
2013-09-28 08:42:00,50.7,50.0,30.36,West,260,0.0,1.0,98,0.00,,,0.00,weatherlink.com 1.10,2013-09-28 12:42:00,
2013-09-28 08:59:00,51.9,51.0,30.36,WNW,290,0.0,1.0,98,0.00,,,0.00,weatherlink.com 1.10,2013-09-28 12:59:00,
2013-09-28 09:15:00,52.9,52.0,30.36,West,270,0.0,2.0,95,0.00,,,0.00,weatherlink.com 1.10,2013-09-28 13:15:00,
2013-09-28 09:31:00,53.9,52.0,30.36,West,273,0.0,2.0,93,0.00,,,0.00,weatherlink.com 1.10,2013-09-28 13:31:00,
2013-09-28 09:47:00,55.3,53.0,30.36,West,274,0.0,1.0,92,0.00,,,0.00,weatherlink.com 1.10,2013-09-28 13:47:00,
2013-09-28 10:04:00,56.8,53.0,30.36,WNW,295,0.0,1.0,88,0.00,,,0.00,weatherlink.com 1.10,2013-09-28 14:04:00,
2013-09-28 10:20:00,57.6,53.0,30.36,NW,315,0.0,3.0,86,0.00,,,0.00,weatherlink.com 1.10,2013-09-28 14:20:00,
2013-09-28 10:36:00,58.7,54.0,30.36,WNW,298,0.0,1.0,85,0.00,,,0.00,weatherlink.com 1.10,2013-09-28 14:36:00,
2013-09-28 10:52:00,59.7,55.0,30.36,WNW,296,0.0,2.0,83,0.00,,,0.00,weatherlink.com 1.10,2013-09-28 14:52:00,
2013-09-28 11:09:00,61.2,55.0,30.36,NW,315,1.0,2.0,79,0.00,,,0.00,weatherlink.com 1.10,2013-09-28 15:09:00,
2013-09-28 11:25:00,62.3,52.0,30.36,NNW,348,0.0,3.0,69,0.00,,,0.00,weatherlink.com 1.10,2013-09-28 15:25:00,
2013-09-28 11:41:00,63.3,53.0,30.35,North,2,2.0,2.0,69,0.00,,,0.00,weatherlink.com 1.10,2013-09-28 15:41:00,
2013-09-28 11:57:00,64.2,53.0,30.35,North,2,1.0,3.0,68,0.00,,,0.00,weatherlink.com 1.10,2013-09-28 15:57:00,
2013-09-28 12:14:00,65.3,52.0,30.34,NNW,347,2.0,4.0,63,0.00,,,0.00,weatherlink.com 1.10,2013-09-28 16:14:00,
2013-09-28 12:30:00,66.1,54.0,30.34,North,4,2.0,4.0,65,0.00,,,0.00,weatherlink.com 1.10,2013-09-28 16:30:00,
2013-09-28 12:46:00,67.1,55.0,30.33,North,3,3.0,4.0,64,0.00,,,0.00,weatherlink.com 1.10,2013-09-28 16:46:00,
2013-09-28 13:02:00,67.6,54.0,30.32,WNW,295,1.0,5.0,62,0.00,,,0.00,weatherlink.com 1.10,2013-09-28 17:02:00,
2013-09-28 13:19:00,66.5,53.0,30.32,NNW,344,1.0,5.0,61,0.00,,,0.00,weatherlink.com 1.10,2013-09-28 17:19:00,
2013-09-28 13:35:00,67.8,54.0,30.31,NNW,334,1.0,3.0,62,0.00,,,0.00,weatherlink.com 1.10,2013-09-28 17:35:00,
2013-09-28 13:51:00,68.3,53.0,30.31,NNE,17,2.0,4.0,58,0.00,,,0.00,weatherlink.com 1.10,2013-09-28 17:51:00,
2013-09-28 14:07:00,69.2,53.0,30.31,NNW,341,1.0,3.0,57,0.00,,,0.00,weatherlink.com 1.10,2013-09-28 18:07:00,
2013-09-28 14:24:00,69.2,54.0,30.30,NNE,21,3.0,4.0,58,0.00,,,0.00,weatherlink.com 1.10,2013-09-28 18:24:00,
2013-09-28 14:56:00,69.5,52.0,30.30,WNW,282,2.0,4.0,54,0.00,,,0.00,weatherlink.com 1.10,2013-09-28 18:56:00,
2013-09-28 15:13:00,70.2,52.0,30.30,NW,312,0.0,3.0,53,0.00,,,0.00,weatherlink.com 1.10,2013-09-28 19:13:00,
2013-09-28 15:29:00,70.9,53.0,30.29,NNW,334,0.0,3.0,53,0.00,,,0.00,weatherlink.com 1.10,2013-09-28 19:29:00,
2013-09-28 15:45:00,70.5,54.0,30.29,NNE,19,2.0,4.0,56,0.00,,,0.00,weatherlink.com 1.10,2013-09-28 19:45:00,
2013-09-28 16:01:00,70.8,53.0,30.29,North,8,0.0,2.0,53,0.00,,,0.00,weatherlink.com 1.10,2013-09-28 20:01:00,
2013-09-28 16:18:00,70.6,57.0,30.29,West,265,0.0,2.0,62,0.00,,,0.00,weatherlink.com 1.10,2013-09-28 20:18:00,
2013-09-28 16:34:00,71.5,56.0,30.28,West,261,0.0,2.0,59,0.00,,,0.00,weatherlink.com 1.10,2013-09-28 20:34:00,
2013-09-28 16:50:00,71.6,58.0,30.28,West,270,2.0,2.0,62,0.00,,,0.00,weatherlink.com 1.10,2013-09-28 20:50:00,
2013-09-28 17:06:00,71.4,57.0,30.29,WNW,291,0.0,2.0,60,0.00,,,0.00,weatherlink.com 1.10,2013-09-28 21:06:00,
2013-09-28 17:23:00,69.8,57.0,30.28,West,261,0.0,2.0,63,0.00,,,0.00,weatherlink.com 1.10,2013-09-28 21:23:00,
2013-09-28 17:39:00,68.1,56.0,30.28,WNW,282,0.0,1.0,65,0.00,,,0.00,weatherlink.com 1.10,2013-09-28 21:39:00,
2013-09-28 17:55:00,67.4,54.0,30.28,WNW,301,0.0,1.0,63,0.00,,,0.00,weatherlink.com 1.10,2013-09-28 21:55:00,
2013-09-28 18:11:00,65.5,53.0,30.28,NW,308,0.0,1.0,64,0.00,,,0.00,weatherlink.com 1.10,2013-09-28 22:11:00,
2013-09-28 18:27:00,61.4,52.0,30.28,WNW,298,0.0,1.0,71,0.00,,,0.00,weatherlink.com 1.10,2013-09-28 22:27:00,
2013-09-28 18:44:00,58.9,51.0,30.28,NNW,331,0.0,1.0,75,0.00,,,0.00,weatherlink.com 1.10,2013-09-28 22:44:00,
2013-09-28 19:00:00,57.6,50.0,30.28,WNW,298,0.0,1.0,77,0.00,,,0.00,weatherlink.com 1.10,2013-09-28 23:00:00,
2013-09-28 19:16:00,56.9,50.0,30.28,WNW,298,0.0,1.0,78,0.00,,,0.00,weatherlink.com 1.10,2013-09-28 23:16:00,
2013-09-28 19:32:00,56.1,50.0,30.28,WNW,298,0.0,0.0,79,0.00,,,0.00,weatherlink.com 1.10,2013-09-28 23:32:00,
2013-09-28 19:49:00,55.5,50.0,30.28,WNW,298,0.0,1.0,81,0.00,,,0.00,weatherlink.com 1.10,2013-09-28 23:49:00,
2013-09-28 20:05:00,55.4,50.0,30.28,NW,312,1.0,1.0,81,0.00,,,0.00,weatherlink.com 1.10,2013-09-29 00:05:00,
2013-09-28 20:21:00,55.9,50.0,30.28,SE,130,0.0,1.0,81,0.00,,,0.00,weatherlink.com 1.10,2013-09-29 00:21:00,
2013-09-28 20:37:00,55.1,50.0,30.28,NNW,337,0.0,0.0,83,0.00,,,0.00,weatherlink.com 1.10,2013-09-29 00:37:00,
2013-09-28 20:54:00,53.9,49.0,30.28,WNW,289,0.0,1.0,84,0.00,,,0.00,weatherlink.com 1.10,2013-09-29 00:54:00,
2013-09-28 21:10:00,54.0,50.0,30.28,WNW,290,0.0,1.0,85,0.00,,,0.00,weatherlink.com 1.10,2013-09-29 01:10:00,
2013-09-28 21:26:00,53.9,50.0,30.28,ENE,69,0.0,2.0,86,0.00,,,0.00,weatherlink.com 1.10,2013-09-29 01:26:00,
2013-09-28 21:42:00,53.9,50.0,30.28,West,276,0.0,1.0,87,0.00,,,0.00,weatherlink.com 1.10,2013-09-29 01:42:00,
2013-09-28 21:59:00,53.0,50.0,30.28,West,277,0.0,1.0,89,0.00,,,0.00,weatherlink.com 1.10,2013-09-29 01:59:00,
2013-09-28 22:15:00,52.9,50.0,30.28,West,277,0.0,1.0,90,0.00,,,0.00,weatherlink.com 1.10,2013-09-29 02:15:00,
2013-09-28 22:31:00,52.4,50.0,30.28,West,278,0.0,1.0,91,0.00,,,0.00,weatherlink.com 1.10,2013-09-29 02:31:00,
2013-09-28 22:47:00,52.1,50.0,30.28,West,277,0.0,1.0,91,0.00,,,0.00,weatherlink.com 1.10,2013-09-29 02:47:00,
2013-09-28 23:04:00,52.0,49.0,30.28,West,279,0.0,1.0,91,0.00,,,0.00,weatherlink.com 1.10,2013-09-29 03:04:00,
2013-09-28 23:20:00,51.6,49.0,30.27,West,276,0.0,1.0,92,0.00,,,0.00,weatherlink.com 1.10,2013-09-29 03:20:00,
2013-09-28 23:36:00,51.6,49.0,30.27,West,277,0.0,0.0,92,0.00,,,0.00,weatherlink.com 1.10,2013-09-29 03:36:00,
2013-09-28 23:53:00,51.0,49.0,30.27,West,276,0.0,1.0,93,0.00,,,0.00,weatherlink.com 1.10,2013-09-29 03:53:00,